Regional Weather Roundup
Issued by NWS Charleston, SC

Current Version | Previous Version | Graphics & Text | Print | Product List | Glossary On
Versions: 1 2 3 4 5 6 7 8 9 10 11 12 13 14 15 16 17 18 19 20 21 22 23 24 25 26 27 28 29 30 31 32 33 34 35 36 37 38 39 40 41 42 43 44 45 46 47 48 49 50
000 ASUS42 KCHS 260627 RWRCHS REGIONAL WEATHER ROUNDUP NATIONAL WEATHER SERVICE CHARLESTON SC 200 AM EDT MON JUN 26 2017 NOTE: "FAIR" INDICATES FEW OR NO CLOUDS BELOW 12,000 FEET WITH NO SIGNIFICANT WEATHER AND/OR OBSTRUCTIONS TO VISIBILITY. NOT ALL STATIONS ARE QUALITY CONTROLLED. USE DATA WITH CAUTION... ESPECIALLY DEWPOINT OBSERVATIONS. SCZ027-030-031-034>040-042>050-260700- ...SOUTHEAST SOUTH CAROLINA... CITY SKY/WX TMP DP RH WIND PRES REMARKS N CHARLESTON CLOUDY 75 73 93 N6 30.06F 6HR MIN TEMP: 74; 6HR MAX TEMP: 76; 6HR PCP: TRACE; WATERFRONT PRK N/A 77 75 93 VRB2 30.03F JOHNS ISLAND FAIR 77 75 94 CALM 30.06R PINOPOLIS N/A 77 73 88 CALM 30.00F MONCKS CORNER FAIR 72 72 100 CALM 30.07S FOG SUMMERVILLE FAIR 72 72 100 CALM 30.08F BEAUFORT MCAS CLOUDY 76 76 100 N7 30.07S 6HR MIN TEMP: 75; 6HR MAX TEMP: 77; BEAUFORT ARPT MOCLDY 75 73 94 NW6 30.06S HILTON HEAD IS CLOUDY 75 75 100 CALM 30.08R WALTERBORO CLOUDY 72 72 100 CALM 30.08F ALLENDALE CLOUDY 75 73 94 CALM 30.07S ...SOUTHERN MIDLANDS AND PEE DEE... CITY SKY/WX TMP DP RH WIND PRES REMARKS GEORGETOWN MOCLDY 72 72 100 NW3 30.08S KINGSTREE FOG 72 72 100 CALM 30.08S VSB 1/4 ORANGEBURG MOCLDY 75 68 78 N6 30.09S 6HR MIN TEMP: 73; 6HR MAX TEMP: 77; BARNWELL FAIR 73 73 100 CALM 30.09S AIKEN MOCLDY 72 66 83 N3 30.14S MANNING MOCLDY 73 73 100 N13 30.08S COLUMBIA CLOUDY 77 65 66 N5 30.09S 6HR MIN TEMP: 77; 6HR MAX TEMP: 85; SUMTER CLOUDY 73 66 79 N3 30.07S 6HR MIN TEMP: 73; 6HR MAX TEMP: 80; 6HR PCP: 0.02; FLORENCE CLOUDY 76 68 76 N7 30.08F 6HR MIN TEMP: 76; 6HR MAX TEMP: 82; 6HR PCP: TRACE; MYRTLE BEACH CLOUDY 75 74 96 CALM 30.08F N MYRTLE BEACH CLOUDY 75 74 96 CALM 30.07S 6HR MIN TEMP: 75; 6HR MAX TEMP: 77; 6HR PCP: TRACE; $$ GAZ063-065-086>088-099>101-113>116-118-119-134>141-150-260700- ...SOUTHEAST GEORGIA... CITY SKY/WX TMP DP RH WIND PRES REMARKS SAVANNAH ARPT CLOUDY 76 73 91 CALM 30.07F 6HR MIN TEMP: 76; 6HR MAX TEMP: 77; 6HR PCP: 0.15; HUNTER AAF CLOUDY 75 75 100 CALM 30.04F 6HR MIN TEMP: 75; 6HR MAX TEMP: 77; 6HR PCP: 0.14; FORT STEWART CLOUDY 75 73 94 CALM 30.05F 6HR MIN TEMP: 74; 6HR MAX TEMP: 76; 6HR PCP: 0.03; STATESBORO PTCLDY 75 32 20 CALM 30.07S SYLVANIA CLOUDY 76 76 100 CALM 30.09S FOG CLAXTON FAIR 73 73 99 CALM 30.07S FOG ...CSRA...CENTRAL AND FAR SOUTHEAST GEORGIA... CITY SKY/WX TMP DP RH WIND PRES REMARKS THOMSON PTCLDY 71 64 78 E6 30.16F AUGUSTA-BUSH MOCLDY 77 69 76 N6 30.09S 6HR MIN TEMP: 76; 6HR MAX TEMP: 86; AUGUSTA-DANIEL MOCLDY 76 64 66 N8 30.11S SWAINSBORO FAIR 73 73 100 NW3 30.09S VIDALIA CLOUDY 73 73 100 W3 30.08S EASTMAN FAIR 72 69 92 CALM 30.12S HAZLEHURST N/A 75 75 100 CALM 30.07F FOG ALMA CLOUDY 75 73 93 CALM 30.08F 6HR MIN TEMP: 75; 6HR MAX TEMP: 76; 6HR PCP: TRACE; WAYCROSS CLOUDY 76 76 100 NW5 30.08F JESUP FAIR 73 72 94 CALM 30.07F BAXLEY FAIR 73 73 100 CALM 30.08S BRUNSWICK CLOUDY 75 75 100 CALM 30.07F SAINT SIMONS CLOUDY 79 75 87 W5 30.06F 6HR MIN TEMP: 77; 6HR MAX TEMP: 80; $$ SCZ027-028-034-036>038-045-046-048>050-GAZ119-141-260700- ...LAKE AND SUPPLEMENTAL COASTAL OBSERVATIONS... STATION/POSITION TIME TEMP WIND PRES WAVE SWELL AIR SEA DIR/SP/G HT/PER HT/PER/DIR (UTC) (F) (DEG/KT/KT) (MB) (FT/S) (FT/S/D) WINYAH BAY 0530 75 330/ 5 1018.0S LAKE MURRAY 0530 74 20/ 2/ 4 1018.3F ACE BASIN NERRS 0530 75 CALM 1018.0F FORT PULASKI 0600 77 84 340/ 4/ 5 1018.4 SAPELO ISLAND 0600 77 280/ 3 1018.0 $$ ANZ835-935-AMZ111-154-330-350-352-354-370-450-454-472-260700- ...C-MAN AND BUOY OBSERVATIONS... STATION/POSITION TIME TEMP WIND PRES WAVE SWELL AIR SEA DIR/SP/G HT/PER HT/PER/DIR (UTC) (F) (DEG/KT/KT) (MB) (FT/S) (FT/S/D) BUOY 41004 0600 79 80 260/ 10/ 12 1017.4 BUOY 41008 0550 79 82 200/ 8/ 10 1017.9R 2/ 9 2/120/ 9 FOLLY BEACH CMAN 0600 76 300/ 3/ 5 1018.5F CAPERS NEARSHORE 0608 83 83 360/ 8/ 16 1017.6F FRIPP NEARSHORE 0608 79 83 300/ 2/ 6 1017.7R STATION/POSITION TIME TEMP WIND PRES WAVE SWELL AIR SEA DIR/SP/G HT/PER HT/PER/DIR (UTC) (F) (DEG/KT/KT) (MB) (FT/S) (FT/S/D) 5E ST. MARYS GA 0600 80 N/A 2/ 4 FRYING PAN BUOY 0600 79 81 300/ 4/ 4 1017.9 BUOY 41025 0550 78 80 260/ 12/ 14 1017.0F 3/ 8 2/130/ 8 CAPE LOOKOUT NC 0600 78 280/ 8/ 10 1017.3R BUOY 41002 0550 80 80 200/ 12/ 14 1019.2F 3/ 5 2/110/ 7 BUOY 41010 0600 82 84 150/ 10/ 12 1019.0 ST AUGUSTINE FL 0600 75 77 180/ 5/ 5 1018.2F $$

USA.gov is the U.S. government's official web portal to all federal, state and local government web resources and services.